NOAA 16 DEB

Satellite information

Favourite Embed

Satellite Type and Status

DEBRISIN ORBIT

Key statistics

Satellite NOAA 16 DEB at a glance.

Uptime

8995

Days in orbit

Revolutions

≈ 14.5

Per day

Orbit

SSO

Sun Synchronous Orbit

Inclination

98.9

Latest

Satellite identification and parameters

Extended collection of information and parameters for NOAA 16 DEB.

Object identification

Identified? True

Debris? True

Object name: NOAA 16 DEB

International designator: 2000-055KJ

Object number (NORAD): 41405

Object ID (CCSDS): 41405

Country: UNITED STATES OF AMERICA (US)

Current information (Y/N): Y

RCS size: SMALL

Orbital parameters

Period: 99.622 minutes

Inclination: 98.8564 deg

SMA: 7118.649 km

Apoapsis: 751.056 km

Periapsis: 729.972 km

RAAN: 240.6263 deg

Eccentricy: 0.0014809

Argument of periapsis: 137.4566 deg

Mean anomaly: 222.7774 deg

Mean motion: 14.45461062 rev/day

Mean motion (dot): 0.00016786 rev/day2

B* drag term: 0.0047606 1/REarth

Two-line elements (TLE)

Creation date: May 8, 2025, 3:01 a.m.

Reference frame: TEME

Reference center: EARTH

Epoch: May 7, 2025, 2:22 a.m. UTC

TLE line 0: 0 NOAA 16 DEB

TLE line 1: 1 41405U 00055KJ 25127.09881991 .00016786 00000-0 47606-2 0 9999

TLE line 2: 2 41405 98.8564 240.6263 0014809 137.4566 222.7774 14.45461062476510

Live tracking on map

Real-time ground track for satellite NOAA 16 DEB.

In-orbit conjunctions

A list of the most updated potential collisions computed for object NOAA 16 DEB.

Target Orbit TCA Probability of collision Miss distance Type
METEOR 2-10 LEO 2025-04-30 16:56:27 0.0001304968 326.0 (m) PAYLOAD
FENGYUN 1C DEB SSO 2024-07-19 08:16:01 0.0001392541 177.0 (m) DEBRIS

Associated space launch

The NOAA K, L and M POES satellites begin the fifth generation of improved environmental monitoring in support of NOAA missions. The instrument payload has significant improvements and additions/deletions. The instrument changes have effected the spacecraft subsystems and data formats.

NOAA 16 DEB was lifted into orbit during the mission ‘Titan II SLV | NOAA 16’, on board a Titan II SLV space rocket.

The launch took place on Sept. 21, 2000, 10:22 a.m. from Space Launch Complex 4W.

For more information about the launch, click the button.

Launch to space Titan II SLV | NOAA 16
Titan II SLV | NOAA 16

Agency: N/A

Status: Launch Successful

Launch date: Sept. 21, 2000, 10:22 a.m. UTC

Rocket: Titan II SLV

Launch pad: Space Launch Complex 4W

Location: Vandenberg SFB, CA, USA

...

Latest news about this satellite

There are no fresh news available about this satellite. Check back as we update our databases every day.


Newsletter sign-up

Weekly statistics, charts and insights to help you stay on top of the space industry.